Location: Hengforden
(52.3167°N, 6.1333°E)
Time: 15:17:23
(UTC+00:00)

SPOT 3 Rocket - Pass Details

Date: 14 June 2025
Orbit: 776 x 789 km, 98.5° (Epoch: 20 July)

Event Time Altitude Azimuth Distance (km) Brightness Sun altitude
Exits shadow 21:14:36 - 177° (S) 2,642 5.8 -8.3°
Reaches altitude 10° 21:15:25 10° 179° (S) 2,325 5.5 -8.4°
Maximum altitude 21:20:28 59° 259° (WSW) 905 4.0 -8.8°
Drops below altitude 10° 21:25:35 10° 338° (NNW) 2,349 7.6 -9.2°
Sets 21:27:58 0° 343° (NNW) 3,284 8.7 -9.4°
